Regional Weather Roundup
Issued by NWS Wilmington, NC

Home | Current Version | Previous Version | Text Only | Print | Product List | Glossary On
Versions: 1 2 3 4 5 6 7 8 9 10 11 12 13 14 15 16 17 18 19 20 21 22 23 24 25 26 27 28 29 30 31 32 33 34 35 36 37 38 39 40 41 42 43 44 45 46 47 48 49 50
000
ASUS42 KILM 310410
RWRILM
RWRILM
REGIONAL HOURLY WEATHER ROUNDUP
NATIONAL WEATHER SERVICE WILMINGTON NC
1200 AM EDT THU JUL 31 2014

NOTE: "FAIR" INDICATES FEW OR NO CLOUDS BELOW 12,000 FEET WITH NO
SIGNIFICANT WEATHER AND/OR OBSTRUCTIONS TO VISIBILITY.

...............WFO WILMINGTON COUNTY WARNING AREA...............

......COASTAL NC AND SC COUNTIES......

CITY           SKY/WX    TMP DP  RH WIND       PRES   REMARKS
WILMINGTON     PTCLDY    72  68  87 NE5       30.06S
SOUTHPORT      PTCLDY    74  68  79 CALM      30.06S
N MYRTLE BEACH PTCLDY    74  67  78 E5        30.05S
MYRTLE BEACH   CLOUDY    81  66  61 E13       30.04F

......INLAND NC AND SC COUNTIES.......

CITY           SKY/WX    TMP DP  RH WIND       PRES   REMARKS
LUMBERTON      CLOUDY    75  65  70 SE3       30.06S
ELIZABETHTOWN  MOCLDY    72  65  79 CALM      30.07S
WHITEVILLE     PTCLDY    70  66  87 CALM      30.06S
FLORENCE       CLOUDY    75  69  81 N5        30.06R
DARLINGTON     CLOUDY    73  66  78 NE3       30.08S

....................REST OF NORTH CAROLINA......................

.........EASTERN NC.........

CITY           SKY/WX    TMP DP  RH WIND       PRES   REMARKS
CAPE HATTERAS  CLOUDY    73  65  75 NE5       30.08S
JACKSONVILLE   MOCLDY    70  64  83 CALM      30.08S
MOREHEAD CITY  MOCLDY    72  68  87 NE5       30.07S
KENANSVILLE    MOCLDY    68  65  92 CALM      30.09S
NEW BERN       CLOUDY    72  67  84 CALM      30.10R
ELIZABETH CITY CLEAR     69  63  81 SE3       30.09F

.........CENTRAL NC.........

CITY           SKY/WX    TMP DP  RH WIND       PRES   REMARKS
RALEIGH DURHAM MOCLDY    69  64  84 CALM      30.08F
ROCKY MOUNT    MOCLDY    71  65  81 CALM      30.08F
ROANOKE RAPIDS NOT AVBL
FAYETTEVILLE   CLOUDY    72  65  78 N3        30.07S
HOFFMAN        CLOUDY    72  66  83 S6        30.10R

.........WESTERN NC.........

CITY           SKY/WX    TMP DP  RH WIND       PRES   REMARKS
CHARLOTTE      CLOUDY    73  62  68 S3        30.09R
GREENSBORO     MOCLDY    70  62  76 SE5       30.10R
HICKORY        NOT AVBL
BOONE          NOT AVBL
ASHEVILLE      NOT AVBL

.....................REST OF SOUTH CAROLINA.....................

.........EASTERN SC.........

CITY           SKY/WX    TMP DP  RH WIND       PRES   REMARKS
CHARLESTON     PTCLDY    79  71  76 E3        30.03S
BEAUFORT MCAS  MOCLDY    80  72  76 E7        30.01S
HILTON HEAD    NOT AVBL

.........CENTRAL SC.........

CITY           SKY/WX    TMP DP  RH WIND       PRES   REMARKS
COLUMBIA       MOCLDY    76  67  73 NE3       30.05S
ORANGEBURG     MOCLDY    74  67  78 E3        30.04F
SUMTER SHAW    PTCLDY    71  70  94 NE5       30.04S

.........WESTERN SC.........

CITY           SKY/WX    TMP DP  RH WIND       PRES   REMARKS
GREENVILLE     NOT AVBL
ROCK HILL      MOCLDY    72  66  81 SE3       30.09R
ANDERSON       MOCLDY    74  61  63 NE6       30.07R
CLEMSON        NOT AVBL
GREENWOOD      CLOUDY    75  63  66 VRB3      30.08R


...................COASTAL AND OFFSHORE REPORTS..................

................LOCAL PIERS AND NC RESERVE................


STATION/POSITION TIME  SKY/WX   TEMP    WIND        PRES    VSBY
                                AIR SEA DIR/SP/G
                 (UTC)          (F)     (DEG/KT/KT) (MB)    (MI)
JOHNY MRCER PIER 0400            80 84   80/ 11/ 14 1017.5R
NC RESRV MASNBRO 0300            79      70/  3     1017.0S
OCEAN CREST PIER 0400            75 85   30/  6/  7 1016.8F
SPRINGMAID  PIER 0400            80 84  100/ 13/ 15 1017.6S


................COASTAL AND OFFSHORE BUOYS................


STATION/POSITION TIME  SKY/WX   TEMP    WIND        PRES    VSBY
                                AIR SEA DIR/SP/G
                 (UTC)          (F)     (DEG/KT/KT) (MB)    (MI)
DIMNDSHOAL 41025 0400                   VRB 10/ 14  1018.1R
WVE H/P(F/S)=  4/ 7 WND WVE H/P(F/S)=  2/ 5 SWL H/P/D(F/S/D)=  3/ 70/ 7

CAPE LOOKOUT     0300            79      60/ 12/ 14 1018.1R
ONSLOW BAY 41036 0400            80 81   90/ 12/ 14 1018.2R
WVE H/P(F/S)=  3/ 5 WND WVE H/P(F/S)=  2/ 5 SWL H/P/D(F/S/D)=  2/110/ 6

5 WRITEBCH 41038 0300            76 81  100/ 10/ 14   N/A
MASONBORO  41110 0400               81                N/A
WVE H/P(F/S)=  3/ 5 WND WVE H/P(F/S)=  3/ 5

WILM HARBR 41108 NOT AVBL
27WRITEBCH 41037 0300            77 82  100/ 10/ 14 1017.5R
FRYING PAN 41013 NOT AVBL
SUNST NRSH 41024 0300            81      90/ 14/ 16 1017.3R
CAPRS NRSH 41029 0300            81     110/ 12/ 16   N/A
EDISTO     41004 0400            82 83   80/ 14/ 16 1016.1S
WVE H/P(F/S)=  4/ 5 WND WVE H/P(F/S)=  3/ 5 SWL H/P/D(F/S/D)=  2/ 7



..........OFFSHORE BUOYS BEYOND 100 NM OFFSHORE...........
.....IN A TRIANGLE---HAT TO BERMUDA TO BAHAMAS TO HAT.....


STATION/POSITION TIME  SKY/WX   TEMP    WIND        PRES    VSBY
                                AIR SEA DIR/SP/G
                 (UTC)          (F)     (DEG/KT/KT) (MB)    (MI)
150E HAT   41001 NOT AVBL
W BERMUDA  41048 0303            77 82  180/ 10/ 16 1019.7R
WVE H/P(F/S)=  5/ 6 WND WVE H/P(F/S)=  3/ 5 SWL H/P/D(F/S/D)=  5/190/ 6

ATLANTIC S 41049 0340            82 83  100/ 12/ 16 1021.4
WVE H/P(F/S)=  4/ 5 WND WVE H/P(F/S)=  3/ 5 SWL H/P/D(F/S/D)=  2/ 30/ 8

E BAHAMAS  41046 0342            81 84  120/ 17/ 19 1017.9F
WVE H/P(F/S)=  5/ 6 WND WVE H/P(F/S)=  5/ 6 SWL H/P/D(F/S/D)=  2/110/ 9

NE BAHAMAS 41047 0251            83 85  140/ 14/ 17 1018.4
WVE H/P(F/S)=  4/ 7 WND WVE H/P(F/S)=  3/ 5 SWL H/P/D(F/S/D)=  3/120/ 7

120E CANVRL41010 0400            84 85  190/ 10/ 10 1015.6F
WVE H/P(F/S)=  2/ 9 WND WVE H/P(F/S)=  2/ 4 SWL H/P/D(F/S/D)=  2/110/ 9


END



USA.gov is the U.S. government's official web portal to all federal, state and local government web resources and services.